Temperature
10 9 9 10 9 9 9 9 9 8 8 8 8 7 7 7 6 6 6 5 4 4 3 3 2 2 1 1 1 0 -0 -1 -1 -1 -1 -2 -2 -2
10 9 9 9 9 9 9 9 8 8 8 7 7 7 7 6 6 6 5 4 4 3 3 2 2 1 1 1 0 -0 -1 -1 -2 -2 -2 -2 -3 -3
10 10 10 10 9 9 9 9 8 8 8 7 7 7 6 6 6 5 5 4 4 3 2 2 1 1 0 0 -1 -1 -1 -2 -2 -2 -3 -3 -3 -3
10 10 10 9 9 9 9 8 8 8 7 7 7 6 6 5 5 5 4 4 3 3 2 2 1 0 -0 -1 -1 -1 -2 -2 -3 -3 -3 -4 -4 -4
10 10 10 9 9 9 9 8 8 8 7 7 6 6 5 5 5 4 4 3 3 2 2 1 1 -0 -1 -1 -1 -2 -2 -3 -3 -3 -4 -4 -4 -4
10 10 10 9 9 9 9 8 8 7 7 6 6 6 5 5 4 4 4 3 3 2 1 1 0 -0 -1 -2 -2 -2 -3 -3 -4 -4 -4 -4 -5 -5
10 9 9 9 9 9 8 8 8 7 7 6 6 5 5 4 4 4 3 3 2 2 1 1 0 -0 -1 -2 -2 -3 -3 -4 -4 -4 -4 -5 -5 -5
9 9 9 9 8 8 8 8 7 7 7 6 6 5 5 4 4 3 2 2 2 1 1 0 -0 -1 -1 -2 -3 -3 -4 -4 -4 -4 -5 -5 -5 -5
9 9 9 9 8 8 7 7 7 6 6 6 5 5 4 4 3 3 2 1 1 1 0 0 -0 -1 -1 -2 -3 -4 -4 -4 -4 -5 -5 -5 -5 -5
9 9 9 9 8 8 7 7 7 6 6 5 5 4 4 3 3 2 1 1 1 0 -1 -1 -1 -1 -1 -2 -3 -4 -4 -4 -5 -5 -5 -5 -6 -6
9 9 9 8 8 8 7 7 6 6 5 5 4 4 3 3 2 1 1 0 0 -0 -1 -2 -2 -2 -2 -2 -3 -4 -4 -4 -5 -5 -6 -6 -6 -6
9 8 8 8 8 7 7 7 6 6 5 4 4 3 3 2 2 1 0 -0 -1 -1 -2 -3 -3 -4 -3 -3 -3 -4 -4 -5 -5 -5 -6 -6 -6 -6
8 8 8 8 7 7 7 6 6 5 5 4 4 3 3 2 1 1 0 -1 -1 -2 -2 -3 -4 -4 -5 -5 -4 -4 -5 -5 -5 -5 -6 -6 -6 -6
8 8 8 7 7 6 6 6 5 5 4 4 3 3 2 2 1 0 -0 -1 -2 -2 -3 -3 -4 -4 -5 -5 -5 -5 -5 -5 -6 -6 -6 -6 -6 -6
8 8 7 7 6 6 5 5 5 4 4 4 3 2 2 1 1 0 -0 -1 -2 -2 -3 -4 -4 -4 -5 -5 -6 -6 -6 -5 -6 -6 -6 -6 -6 -6
7 7 7 6 6 5 5 4 4 4 4 3 3 2 1 1 0 -0 -1 -1 -2 -2 -3 -4 -4 -4 -5 -5 -5 -6 -6 -6 -6 -6 -6 -6 -6 -6
7 6 6 5 5 5 4 4 4 3 3 3 2 2 1 0 -0 -1 -1 -2 -2 -3 -3 -3 -4 -4 -5 -5 -5 -6 -6 -6 -6 -6 -6 -6 -6 -6
7 6 6 5 5 5 4 4 3 3 3 2 2 1 1 0 -0 -1 -2 -2 -3 -3 -3 -4 -4 -4 -4 -5 -5 -6 -6 -6 -6 -6 -6 -6 -6 -6
6 6 6 5 5 4 4 4 4 3 2 2 2 1 0 -0 -1 -1 -2 -2 -3 -3 -4 -4 -5 -5 -6 -6 -6 -6 -7 -7 -6 -6 -6 -6 -6 -6
6 6 5 5 5 4 4 4 3 3 2 2 1 1 0 -0 -1 -2 -2 -2 -3 -3 -4 -4 -5 -6 -6 -7 -7 -6 -7 -7 -7 -6 -6 -6 -6 -6
5 5 5 5 5 4 4 4 3 3 2 1 1 0 -0 -1 -1 -2 -2 -3 -3 -4 -4 -4 -5 -6 -6 -6 -6 -6 -6 -6 -7 -7 -7 -6 -6 -6
5 5 5 5 4 4 4 3 3 2 2 1 1 0 -0 -1 -1 -2 -2 -3 -3 -4 -4 -5 -5 -6 -6 -6 -6 -6 -6 -6 -6 -6 -7 -7 -7 -7
5 5 5 4 4 4 3 3 3 2 2 1 0 -0 -1 -1 -2 -2 -2 -3 -3 -4 -4 -5 -5 -6 -6 -6 -6 -7 -6 -6 -6 -6 -6 -6 -7 -7
Wind_Speed
9 8 6 5 4 4 4 5 5 3 3 3 2 2 4 4 2 0 2 4 5 6 7 8 9 10 11 12 14 15 16 17 18 19 20 21 22 22
8 9 8 5 5 4 4 4 4 4 3 2 2 2 3 3 1 0 2 4 5 5 6 8 9 10 11 11 13 14 16 17 18 19 20 21 21 22
10 10 10 8 6 5 4 4 3 3 3 1 1 1 2 2 1 0 1 2 3 5 6 7 8 10 10 11 12 14 15 16 17 18 20 20 21 22
12 11 10 8 8 6 5 5 4 4 4 3 1 1 1 2 1 1 2 2 3 4 6 7 9 9 10 10 11 13 14 15 17 18 19 20 20 21
12 12 11 10 9 7 7 6 5 4 3 3 2 1 1 1 1 1 2 2 4 3 5 7 9 9 9 10 11 12 13 15 16 17 18 19 20 20
11 11 11 11 11 10 8 7 6 5 3 3 2 1 1 1 1 1 2 2 3 3 5 7 8 8 9 10 11 12 13 15 16 17 18 19 19 20
10 10 10 11 12 10 8 8 7 6 4 3 2 2 1 1 1 0 1 2 2 1 2 4 5 4 6 9 9 11 13 15 16 17 18 18 19 19
11 9 9 10 12 12 11 11 10 8 7 5 3 3 3 2 1 0 1 2 2 2 2 4 3 3 4 5 9 11 13 15 16 17 18 18 19 19
11 10 8 8 11 9 10 10 8 8 9 7 5 4 4 4 3 2 1 1 2 2 2 3 3 4 5 6 9 11 13 15 16 17 18 18 18 18
11 11 11 10 11 11 9 7 5 4 5 5 5 4 4 4 4 3 2 1 2 2 2 1 3 4 6 5 8 11 14 15 17 17 18 18 18 18
10 11 12 11 15 17 12 10 7 5 6 9 9 8 8 7 6 4 3 2 1 1 1 1 2 4 4 3 6 11 14 15 17 18 18 18 18 17
8 10 13 14 18 18 13 12 10 7 7 7 7 8 7 7 7 4 3 1 1 1 1 1 2 3 4 3 4 7 10 13 17 17 18 18 18 12
9 8 9 17 18 18 14 10 12 11 8 7 6 5 4 4 3 3 2 2 1 1 1 1 1 2 2 4 5 4 6 7 10 11 15 18 18 14
10 8 10 18 18 17 12 12 16 13 7 7 6 4 4 3 2 3 3 3 1 2 2 1 1 2 3 4 5 5 6 7 6 6 9 16 16 16
9 14 16 19 17 13 14 17 15 9 7 7 6 4 3 3 3 3 3 4 4 3 2 2 1 2 2 3 5 5 6 6 5 6 7 7 7 8
10 14 18 18 13 12 12 11 7 7 7 6 5 4 4 4 3 2 1 2 2 2 3 3 2 2 3 4 5 6 5 5 7 8 7 7 8 9
11 9 8 9 8 7 7 7 6 6 6 5 6 5 5 4 3 2 1 1 1 1 2 3 4 4 4 4 3 5 5 5 6 7 8 8 7 7
13 10 9 9 9 9 9 7 6 6 6 6 6 6 5 4 3 2 1 1 1 1 1 2 3 4 4 3 4 4 4 5 7 7 6 7 8 7
9 9 9 9 9 9 8 8 7 6 6 6 6 6 5 4 4 3 2 1 0 1 1 1 2 3 4 5 4 3 4 7 7 7 6 6 7 9
7 9 9 9 10 9 9 8 7 7 6 6 6 6 5 5 4 3 2 2 1 1 1 1 2 2 2 3 4 5 8 6 6 7 7 6 7 10
7 8 8 9 9 9 9 9 8 8 7 6 6 6 5 5 4 3 2 2 1 0 1 2 3 4 2 2 4 5 5 8 8 5 6 6 6 6
8 8 8 9 9 9 9 9 8 8 8 6 6 6 5 5 4 4 3 2 1 0 1 1 2 2 2 2 4 6 6 8 10 11 8 5 3 4
8 8 8 9 9 9 9 9 9 8 7 7 6 6 5 5 4 4 3 3 2 2 1 2 2 2 2 2 3 4 6 7 6 7 6 11 12 12
Wind_Direction
186 184 181 181 178 173 160 156 162 194 227 202 164 144 130 134 145 111 280 296 312 318 324 329 332 335 336 337 338 338 338 337 336 336 335 336 337 337
183 183 186 181 177 174 170 167 165 174 207 193 153 136 113 124 148 253 268 306 306 313 325 330 332 333 335 338 338 338 338 338 339 339 338 338 338 338
184 185 188 180 178 177 171 167 172 165 196 206 96 106 113 140 99 56 302 303 297 311 323 328 331 334 337 339 339 339 341 342 341 339 339 339 338 337
187 185 186 180 177 175 172 175 180 176 176 194 172 130 141 151 113 356 340 330 314 309 331 332 332 333 335 339 341 342 343 342 340 340 339 339 339 338
186 186 185 179 183 179 174 179 180 171 163 167 174 150 103 94 65 359 346 341 330 329 340 333 329 331 336 338 340 343 344 342 342 341 340 340 339 338
184 184 184 184 185 181 180 178 167 164 166 159 156 147 109 81 81 359 324 323 323 355 347 333 328 331 334 337 341 343 343 343 343 342 341 340 339 337
179 181 181 179 179 177 175 172 168 170 168 167 164 141 140 115 188 219 305 324 320 351 340 321 322 322 328 333 337 340 342 344 344 342 341 340 339 338
179 177 174 172 170 167 165 166 167 172 177 175 179 179 188 179 148 119 58 3 299 315 342 311 324 322 325 326 333 341 344 344 344 342 341 341 340 340
177 173 169 171 164 163 157 152 157 163 169 170 174 185 176 180 163 161 156 301 264 285 349 301 311 318 323 327 337 343 345 345 344 343 342 343 343 342
174 172 169 167 167 159 150 146 141 140 152 151 159 163 156 156 161 160 154 27 335 352 35 307 310 318 321 314 331 343 345 345 345 344 344 345 345 346
170 168 167 168 164 154 151 149 139 126 112 118 118 118 118 117 113 108 98 57 351 312 25 1 313 323 314 300 321 335 339 341 343 344 345 345 346 348
164 168 167 166 163 160 161 158 157 152 134 119 109 104 99 104 106 115 143 115 24 285 330 9 332 347 324 304 314 320 331 337 342 343 344 345 346 347
168 169 170 163 164 164 161 164 160 148 142 133 123 114 102 96 88 81 92 134 140 245 249 22 328 335 302 306 309 316 330 328 331 335 341 342 345 346
168 165 163 160 161 160 158 150 143 137 137 134 131 131 130 123 106 88 77 66 74 221 240 241 242 285 305 308 303 316 323 323 330 330 335 338 341 341
159 156 153 154 153 155 151 146 142 140 142 144 149 152 148 139 116 90 71 56 33 3 332 304 261 277 281 286 298 309 317 319 331 333 329 328 323 326
143 145 145 144 141 143 144 143 141 148 148 151 148 140 131 127 125 111 86 58 28 352 346 346 317 276 285 281 284 294 304 308 323 326 324 318 320 325
139 134 136 143 143 142 138 135 136 139 137 136 138 138 136 130 128 117 99 73 35 336 329 331 333 319 279 267 283 290 302 309 314 321 326 322 316 318
142 148 153 156 157 156 154 150 149 151 148 144 145 145 147 145 139 133 110 81 41 333 325 322 344 350 347 308 248 279 302 310 318 320 321 321 316 317
146 155 159 161 159 158 158 158 158 155 150 148 148 148 146 144 145 151 150 116 49 343 321 331 354 5 351 331 302 272 306 317 320 320 317 313 305 308
156 160 163 161 160 159 158 156 152 151 150 150 148 149 149 149 153 161 167 164 147 358 342 344 343 339 322 300 295 294 301 307 316 317 316 310 299 302
158 158 159 158 158 156 156 155 155 157 155 153 153 152 154 154 157 161 162 161 117 98 313 301 302 327 319 309 316 313 305 314 319 309 312 319 320 323
157 157 156 153 154 154 154 153 154 154 154 154 155 155 156 158 159 158 156 159 157 128 336 325 328 340 342 334 326 319 320 324 329 329 320 308 316 324
158 156 154 153 153 153 154 155 155 157 158 158 157 156 155 155 153 150 148 144 131 104 60 15 358 351 332 322 321 321 324 330 333 337 331 333 327 315
Height
1486 1489 1492 1495 1497 1499 1501 1502 1504 1503 1504 1504 1504 1503 1503 1502 1501 1499 1497 1495 1493 1490 1487 1484 1481 1478 1475 1471 1468 1464 1460 1457 1453 1449 1445 1441 1437 1433
1481 1485 1487 1490 1493 1495 1496 1498 1499 1500 1500 1500 1500 1500 1499 1499 1497 1495 1493 1491 1489 1486 1484 1481 1478 1475 1471 1468 1464 1461 1457 1453 1449 1445 1442 1438 1434 1430
1476 1479 1482 1485 1487 1490 1492 1493 1495 1496 1496 1496 1497 1496 1496 1495 1493 1491 1490 1487 1485 1483 1480 1477 1474 1471 1468 1464 1461 1457 1454 1450 1446 1442 1438 1434 1431 1427
1470 1473 1476 1480 1482 1485 1487 1488 1490 1491 1492 1492 1492 1492 1491 1491 1489 1488 1486 1484 1481 1479 1477 1474 1471 1468 1465 1461 1458 1455 1451 1447 1443 1439 1435 1431 1427 1423
1465 1468 1471 1474 1477 1479 1481 1483 1485 1487 1488 1488 1488 1488 1487 1486 1485 1484 1482 1480 1478 1475 1473 1470 1468 1465 1462 1459 1455 1452 1448 1444 1440 1436 1432 1428 1424 1420
1459 1463 1466 1468 1471 1474 1476 1478 1480 1482 1483 1484 1484 1484 1483 1482 1481 1479 1478 1476 1474 1472 1470 1467 1464 1461 1458 1455 1452 1448 1445 1441 1437 1433 1430 1426 1422 1418
1454 1458 1461 1464 1466 1469 1471 1473 1475 1477 1478 1479 1479 1479 1478 1477 1477 1475 1474 1472 1470 1469 1466 1464 1461 1458 1455 1452 1449 1445 1442 1439 1435 1431 1427 1423 1419 1415
1448 1452 1456 1459 1462 1464 1467 1469 1471 1472 1473 1474 1474 1474 1474 1474 1473 1472 1471 1468 1466 1465 1463 1461 1458 1455 1452 1449 1446 1443 1440 1436 1432 1429 1425 1421 1417 1413
1443 1447 1450 1453 1457 1459 1462 1464 1466 1467 1469 1470 1470 1470 1470 1470 1470 1469 1468 1466 1464 1462 1460 1457 1455 1452 1449 1446 1443 1440 1437 1434 1430 1427 1423 1419 1415 1411
1437 1441 1445 1448 1451 1454 1457 1459 1461 1463 1464 1465 1466 1466 1467 1467 1467 1466 1465 1463 1462 1459 1457 1454 1451 1449 1446 1444 1441 1438 1435 1431 1428 1424 1421 1417 1413 1409
1432 1436 1439 1443 1446 1449 1452 1454 1456 1458 1460 1461 1462 1463 1463 1463 1463 1463 1461 1460 1458 1456 1455 1452 1449 1446 1443 1441 1439 1435 1432 1429 1425 1422 1418 1415 1411 1407
1426 1430 1434 1438 1441 1444 1447 1449 1451 1453 1455 1457 1458 1459 1460 1460 1460 1459 1458 1457 1455 1453 1452 1450 1447 1444 1440 1438 1436 1433 1430 1426 1423 1420 1416 1413 1409 1405
1420 1424 1428 1432 1436 1439 1442 1444 1447 1450 1451 1453 1454 1455 1456 1457 1456 1456 1455 1455 1453 1452 1450 1448 1446 1443 1441 1436 1433 1431 1428 1424 1421 1418 1414 1411 1407 1404
1415 1419 1423 1428 1431 1434 1437 1440 1443 1445 1448 1449 1450 1452 1453 1453 1453 1453 1453 1452 1451 1450 1448 1446 1444 1442 1439 1435 1431 1428 1426 1422 1419 1415 1412 1408 1405 1402
1410 1415 1419 1423 1427 1430 1433 1436 1439 1441 1443 1445 1447 1448 1450 1450 1451 1451 1450 1450 1449 1448 1446 1444 1442 1440 1437 1434 1430 1427 1423 1420 1417 1414 1410 1406 1403 1400
1406 1411 1415 1419 1423 1426 1429 1432 1435 1437 1440 1442 1443 1445 1446 1447 1448 1448 1447 1447 1446 1445 1444 1442 1440 1438 1434 1432 1429 1426 1423 1419 1415 1412 1408 1405 1401 1398
1401 1405 1410 1414 1418 1421 1424 1428 1431 1434 1436 1438 1440 1441 1443 1444 1445 1445 1445 1444 1444 1442 1441 1440 1438 1436 1433 1430 1427 1425 1421 1418 1414 1410 1406 1403 1400 1397
1397 1400 1405 1409 1412 1416 1420 1423 1427 1430 1432 1435 1437 1438 1440 1441 1442 1442 1443 1442 1441 1440 1439 1437 1435 1432 1431 1428 1427 1423 1420 1416 1413 1409 1406 1401 1398 1396
1392 1396 1400 1404 1408 1412 1416 1419 1423 1426 1429 1431 1433 1435 1437 1438 1439 1440 1440 1440 1439 1438 1437 1435 1433 1431 1428 1426 1424 1422 1418 1414 1411 1408 1405 1401 1397 1394
1388 1392 1396 1400 1404 1408 1412 1416 1419 1423 1425 1428 1430 1432 1434 1435 1436 1437 1437 1437 1437 1436 1435 1434 1432 1430 1429 1427 1423 1420 1418 1414 1410 1407 1403 1400 1397 1394
1384 1389 1393 1397 1400 1405 1409 1412 1416 1419 1422 1425 1427 1429 1431 1433 1434 1435 1435 1435 1434 1434 1433 1432 1431 1430 1428 1425 1422 1419 1417 1414 1411 1407 1403 1399 1395 1392
1381 1385 1390 1394 1397 1401 1405 1409 1413 1416 1419 1422 1424 1426 1428 1430 1431 1432 1432 1432 1432 1432 1431 1431 1430 1428 1426 1424 1421 1419 1416 1413 1411 1408 1404 1400 1397 1392
1378 1382 1387 1390 1394 1398 1402 1406 1409 1413 1416 1419 1421 1424 1425 1427 1429 1430 1430 1431 1430 1430 1429 1429 1428 1427 1425 1423 1421 1419 1416 1413 1410 1407 1404 1401 1398 1395